Temp
51 43 41 49 53 57 57 53 53 58 64 61 60 62 64 71 70 71 73 75 75 76 83 82 80 80 79 78 77 77 75 74 74 74 72 74 76 75 74 76 78 78 78 78
48 41 52 55 54 53 54 51 52 58 63 60 62 60 66 69 70 73 73 75 76 77 78 79 78 78 76 76 76 76 76 73 74 76 74 75 75 75 76 73 73 74 75 74
45 51 55 52 50 48 50 50 50 54 60 63 60 58 62 68 70 73 75 77 78 78 78 76 77 77 78 76 75 75 75 73 73 74 72 71 71 72 72 69 69 70 71 72
48 56 53 50 49 51 45 55 55 56 55 50 62 50 58 66 67 69 73 73 76 78 77 79 77 77 77 78 79 78 75 72 71 73 71 71 72 73 72 71 71 71 74 75
46 49 49 46 50 54 50 56 54 56 54 53 55 51 60 62 63 68 72 75 76 78 78 77 77 78 79 80 78 77 73 70 70 72 72 71 70 73 74 73 72 71 71 74
49 59 55 54 56 56 59 54 54 55 54 44 53 52 55 60 65 70 74 75 76 77 77 78 79 79 78 74 72 70 67 68 71 73 72 72 72 73 74 73 72 71 72 73
41 48 55 58 51 55 54 50 40 38 40 42 55 50 57 64 63 65 67 68 69 74 73 73 73 74 72 67 67 68 68 66 70 71 72 73 74 73 73 73 74 72 69 70
36 32 49 54 54 48 50 51 44 33 37 44 51 46 56 63 59 62 63 64 68 69 71 72 72 71 69 66 66 67 65 63 67 68 68 68 69 72 71 71 73 70 70 70
39 39 55 55 58 59 51 47 60 49 51 46 50 53 55 57 58 60 61 64 64 61 61 63 64 62 60 61 64 65 64 63 65 65 64 64 65 65 65 66 68 69 69 69
42 37 49 55 58 60 56 60 47 52 38 38 47 50 54 53 54 55 56 57 57 57 57 57 56 57 58 61 64 65 65 63 63 63 62 62 62 62 61 62 62 64 64 66
44 35 37 53 42 49 52 50 54 53 50 44 40 48 55 56 57 55 55 54 53 53 53 53 55 57 59 64 65 64 64 63 62 62 59 58 57 59 60 60 61 62 63 64
44 37 35 43 48 57 59 52 55 47 43 49 52 45 53 58 56 55 51 51 52 53 53 54 56 58 62 63 63 61 61 62 61 58 54 54 53 57 57 59 59 60 60 61
38 35 34 35 41 47 51 53 57 56 53 47 45 40 52 55 52 51 49 50 52 53 54 54 57 60 60 60 61 62 61 61 59 56 56 54 53 55 55 56 56 58 59 59
44 37 42 39 40 40 42 51 55 55 48 48 50 42 47 49 49 49 50 53 53 53 53 55 58 58 59 59 59 59 58 59 58 55 53 53 53 52 53 55 56 57 57 58
44 35 44 48 47 45 47 51 53 52 55 51 49 49 49 50 48 49 52 52 53 53 55 54 53 53 54 53 54 55 56 55 57 55 54 51 53 55 55 55 55 55 56 56
42 34 41 42 48 48 44 53 54 55 52 49 51 46 54 52 51 51 53 53 50 49 50 51 51 53 53 53 53 54 54 54 55 54 53 53 52 52 52 53 53 54 54 54
37 35 41 37 46 45 38 50 55 55 57 53 49 50 51 49 49 50 50 49 47 48 48 50 50 52 51 52 52 51 52 53 52 52 53 52 52 52 52 52 53 52 52 53
38 35 39 37 44 32 50 56 60 52 53 55 53 52 53 50 49 49 50 49 47 47 49 50 50 50 49 50 51 50 51 49 49 49 49 50 50 50 51 51 51 51 53 52
42 36 37 35 37 43 49 53 57 56 46 56 52 52 47 46 45 42 48 49 49 49 49 49 49 48 48 48 48 49 49 49 48 46 46 47 48 48 49 49 50 51 52 51
43 41 37 41 36 33 50 54 58 60 42 55 52 46 45 49 40 38 44 46 46 48 46 45 46 46 46 46 48 48 47 47 45 45 46 47 47 47 48 49 49 50 49 48
36 37 38 40 39 43 52 55 59 46 48 54 51 49 51 50 46 43 45 44 46 45 42 42 42 42 45 47 48 46 45 44 46 47 48 48 48 48 49 49 49 49 49 50
37 38 38 42 39 35 53 55 52 53 54 53 51 46 44 45 45 45 44 42 41 41 41 42 42 44 46 48 48 45 40 43 44 46 47 46 46 48 49 47 47 46 45 44
39 43 40 41 39 46 53 52 55 57 53 49 46 46 46 46 44 44 43 43 43 42 45 44 43 44 46 47 47 42 40 42 44 46 46 45 47 48 47 45 44 43 42 42
47 51 42 43 42 44 49 52 54 54 51 50 49 47 49 48 47 46 43 42 44 43 43 48 47 46 45 46 46 43 42 42 43 41 42 46 46 44 45 46 43 41 39 38
45 48 41 39 42 45 45 49 51 51 52 51 51 50 51 49 47 45 45 45 44 46 47 48 46 46 45 46 46 46 45 43 42 40 39 41 41 44 41 41 40 39 40 38
42 45 41 38 44 42 41 46 49 47 47 49 49 48 48 48 46 45 42 45 47 46 47 46 46 46 46 46 46 46 46 44 41 40 38 38 39 39 39 38 39 39 39 39
MSLP
1007.32 1006.99 1004.10 1004.22 1004.38 1003.99 1003.09 1003.30 1003.06 1002.84 1002.49 1002.46 1001.80 1001.71 1002.06 1001.63 1001.85 1001.77 1001.47 1001.42 1001.58 1001.78 1001.71 1002.37 1002.93 1003.54 1004.16 1004.75 1005.23 1005.62 1006.45 1007.10 1007.73 1008.31 1008.91 1009.51 1009.89 1010.43 1010.78 1010.91 1010.92 1011.12 1011.23 1011.44
1006.08 1003.90 1004.27 1004.91 1005.01 1004.50 1003.58 1003.30 1003.06 1002.62 1002.31 1002.16 1001.32 1000.96 1001.24 1000.73 1000.96 1001.00 1000.86 1000.61 1000.82 1001.21 1001.65 1002.01 1002.52 1003.19 1003.78 1004.18 1004.90 1005.66 1006.18 1006.95 1007.51 1008.06 1008.95 1009.48 1010.01 1010.42 1010.46 1010.89 1011.14 1011.28 1011.51 1011.76
1003.84 1001.86 1003.34 1003.88 1004.06 1004.09 1003.37 1002.94 1003.08 1002.28 1001.91 1001.74 1001.21 1000.41 1000.13 999.82 1000.28 1000.29 1000.28 1000.13 1000.19 1000.57 1000.81 1001.54 1002.09 1002.52 1003.03 1003.74 1004.39 1004.98 1005.94 1006.88 1007.55 1008.29 1009.08 1009.61 1010.12 1010.40 1010.56 1010.93 1011.18 1011.38 1011.57 1011.83
1003.16 1002.00 1002.32 1002.40 1002.23 1002.91 1002.38 1003.01 1003.15 1002.38 1001.70 1000.88 1000.95 999.26 999.15 999.08 999.19 999.45 999.36 999.51 999.59 999.88 1000.38 1000.89 1001.54 1002.12 1002.56 1002.82 1003.92 1005.01 1005.91 1006.77 1007.58 1008.29 1008.87 1009.35 1009.54 1009.87 1010.33 1010.65 1011.08 1011.28 1011.41 1011.51
1000.52 1000.88 1001.30 1001.63 1001.06 1002.12 1001.29 1002.46 1002.85 1002.48 1001.93 1001.28 1000.53 1000.11 998.30 998.93 998.26 998.45 998.60 998.62 998.81 999.00 999.59 1000.26 1000.97 1001.55 1001.89 1003.01 1004.00 1005.00 1006.16 1007.06 1007.67 1008.13 1008.75 1009.27 1009.81 1009.99 1009.92 1010.15 1010.61 1011.11 1011.32 1011.22
1001.14 1000.36 1000.46 999.87 1001.06 1001.60 1001.88 1002.23 1002.65 1002.60 1002.09 1001.15 999.81 999.80 998.28 998.16 997.90 997.94 997.99 998.18 998.34 998.74 999.52 1000.22 1000.97 1001.95 1002.76 1003.84 1004.74 1005.56 1006.39 1007.35 1007.71 1007.99 1008.54 1009.33 1009.54 1009.74 1009.83 1010.02 1010.18 1010.68 1011.11 1011.37
1001.37 1000.11 999.82 999.67 1000.15 1001.02 1001.24 1001.12 1001.26 1001.73 1001.26 999.22 999.20 999.87 997.94 998.45 998.89 998.80 998.54 998.64 998.96 998.97 999.81 1000.54 1001.52 1002.42 1003.57 1004.70 1005.52 1006.17 1006.97 1007.81 1008.22 1008.65 1008.93 1009.22 1009.47 1009.81 1010.00 1010.21 1010.24 1010.55 1010.90 1011.38
1000.06 999.90 998.95 999.00 998.41 998.70 999.59 999.17 998.13 998.07 998.29 998.33 999.61 998.66 998.25 999.24 1000.01 999.80 999.70 999.79 999.84 1000.12 1000.60 1001.28 1002.12 1003.01 1004.24 1005.16 1005.87 1006.60 1007.53 1008.32 1008.87 1009.24 1009.73 1010.16 1010.46 1010.27 1010.58 1010.71 1010.71 1010.80 1010.99 1011.50
999.22 998.24 997.37 998.03 998.00 997.88 998.45 998.36 997.48 997.57 998.06 998.41 998.49 999.04 999.76 1000.16 1000.46 1000.53 1000.72 1000.87 1001.19 1001.66 1002.26 1002.84 1003.52 1004.52 1005.27 1005.85 1006.45 1007.12 1008.00 1008.93 1009.61 1010.05 1010.40 1010.83 1011.40 1011.75 1011.86 1012.00 1011.87 1011.69 1012.05 1012.32
999.80 998.69 997.86 997.68 997.68 997.28 996.78 996.92 997.28 996.59 997.00 997.17 997.80 998.45 998.65 1000.12 1000.93 1001.51 1002.04 1002.42 1002.89 1003.24 1003.72 1004.25 1005.00 1005.79 1006.24 1006.76 1007.36 1007.81 1008.37 1009.13 1010.00 1010.43 1010.81 1011.80 1011.90 1012.61 1013.21 1013.31 1013.17 1013.09 1013.05 1013.10
1000.18 999.83 999.30 997.97 997.85 996.25 996.41 996.90 996.78 996.69 996.59 996.24 997.32 998.54 999.89 1000.43 1001.40 1002.17 1003.01 1003.64 1004.13 1004.88 1005.39 1005.75 1006.31 1006.80 1007.09 1007.66 1008.13 1008.70 1009.34 1009.85 1010.30 1010.41 1011.23 1012.45 1013.42 1013.20 1013.81 1014.34 1014.38 1014.15 1013.86 1013.60
999.65 999.86 998.63 997.42 998.48 997.17 996.12 996.37 995.92 995.70 996.54 996.82 996.87 999.78 1001.02 1001.28 1002.36 1003.11 1004.18 1004.97 1005.72 1006.34 1006.85 1007.09 1007.34 1007.64 1007.86 1008.50 1009.02 1009.86 1010.63 1010.82 1010.99 1011.10 1011.74 1013.21 1013.57 1014.77 1015.18 1014.80 1014.99 1014.85 1014.38 1014.14
1000.44 999.66 998.28 998.43 999.05 998.15 996.41 996.57 996.26 996.20 996.67 996.84 997.59 1000.52 1001.67 1002.47 1003.42 1004.51 1005.16 1006.14 1006.86 1007.39 1007.83 1008.08 1008.36 1008.82 1009.49 1009.93 1010.15 1010.59 1011.42 1011.86 1011.84 1011.91 1011.07 1014.15 1015.41 1016.17 1015.63 1015.53 1015.46 1015.21 1014.74 1014.63
999.74 999.01 997.64 996.49 996.35 997.44 996.70 996.29 996.37 996.15 996.40 997.03 997.91 1000.33 1001.80 1002.95 1004.10 1005.24 1006.07 1006.85 1007.65 1008.33 1008.73 1008.99 1009.24 1009.82 1010.51 1011.19 1011.38 1011.89 1012.33 1012.74 1012.85 1013.05 1013.37 1015.51 1016.20 1016.09 1015.83 1015.74 1015.76 1015.59 1015.31 1014.97
999.91 999.33 997.99 996.77 996.37 996.65 996.87 996.15 996.40 996.35 996.63 996.95 998.57 999.84 1001.61 1003.10 1004.55 1005.63 1006.44 1007.50 1008.36 1009.19 1009.86 1010.33 1010.61 1011.39 1011.97 1012.61 1012.94 1012.95 1013.21 1013.30 1013.61 1013.74 1014.62 1015.59 1015.92 1015.96 1016.03 1015.71 1015.59 1015.43 1015.16 1014.69
1000.99 1000.15 998.51 997.48 996.84 996.62 997.06 996.05 996.32 996.50 997.23 998.14 999.02 1001.06 1002.55 1003.93 1005.39 1006.37 1007.22 1008.12 1009.19 1010.25 1011.10 1011.93 1011.90 1012.12 1012.89 1013.61 1013.98 1013.82 1013.94 1014.10 1014.27 1014.62 1015.39 1015.80 1016.14 1016.08 1016.01 1015.83 1015.56 1015.24 1015.11 1014.82
1001.52 1000.76 998.92 998.03 997.42 997.52 997.61 996.17 995.96 996.83 997.79 998.43 999.46 1001.27 1003.29 1005.08 1006.37 1007.33 1008.20 1009.46 1010.28 1011.09 1012.37 1012.98 1012.98 1013.36 1014.19 1014.69 1014.87 1014.33 1014.64 1014.96 1015.22 1015.73 1015.99 1016.12 1016.20 1016.22 1016.17 1015.94 1015.55 1015.30 1015.07 1014.81
1001.63 1001.08 999.69 998.65 998.05 997.85 996.90 996.71 996.27 997.09 998.23 999.00 999.96 1002.13 1003.98 1005.79 1007.59 1008.77 1009.80 1010.84 1011.30 1012.61 1013.50 1013.90 1014.40 1014.83 1015.46 1015.72 1015.79 1015.92 1015.89 1016.20 1016.54 1016.70 1016.59 1016.55 1016.57 1016.52 1016.16 1015.92 1015.51 1015.38 1015.19 1014.77
1002.27 1001.70 1000.32 999.37 998.54 998.24 997.51 996.93 996.24 996.54 999.51 999.83 1001.14 1003.35 1005.24 1007.16 1008.48 1011.00 1011.65 1012.09 1012.81 1014.02 1014.77 1015.26 1015.64 1015.99 1016.39 1016.44 1016.77 1016.84 1016.92 1017.07 1017.13 1017.44 1017.27 1017.25 1017.05 1016.82 1016.54 1016.09 1015.87 1015.65 1015.19 1014.90
1001.62 1001.78 1000.95 999.35 998.61 998.10 997.48 997.60 997.29 997.20 1000.09 1001.05 1001.84 1003.56 1004.84 1006.84 1009.50 1012.33 1013.10 1013.47 1014.45 1015.34 1015.92 1016.41 1016.87 1017.08 1017.18 1017.31 1017.50 1017.37 1017.37 1017.56 1017.88 1017.92 1017.70 1017.73 1017.51 1017.28 1016.80 1016.46 1016.25 1015.97 1015.60 1015.33
1001.55 1001.34 1000.66 999.78 999.31 999.22 998.80 998.49 998.50 998.97 1000.83 1002.02 1003.94 1005.26 1006.26 1007.47 1009.66 1012.33 1013.79 1014.83 1015.64 1016.42 1016.89 1017.50 1017.71 1017.78 1017.94 1018.18 1018.32 1018.22 1018.34 1018.36 1018.46 1018.17 1018.00 1017.96 1017.51 1017.30 1017.07 1016.96 1016.47 1016.20 1015.77 1015.41
1001.05 1000.78 1000.79 1000.37 1000.12 1000.55 999.96 999.49 999.41 999.98 1001.27 1002.70 1004.72 1006.54 1007.77 1009.67 1011.64 1013.32 1014.56 1015.57 1016.47 1016.95 1017.60 1018.04 1018.31 1018.68 1018.88 1018.81 1018.65 1018.72 1018.72 1019.05 1019.13 1018.98 1018.46 1018.18 1018.13 1017.89 1017.50 1017.22 1016.98 1016.81 1016.55 1016.10
1000.83 1000.86 1001.20 1001.79 1002.22 1001.83 1000.91 1000.40 1000.40 1000.99 1001.36 1004.52 1005.65 1007.73 1009.08 1010.64 1012.53 1013.99 1015.23 1016.22 1016.99 1017.75 1018.14 1018.89 1018.98 1019.09 1019.18 1019.30 1019.24 1019.26 1019.88 1019.82 1019.44 1018.84 1018.51 1018.51 1018.32 1018.09 1017.82 1017.53 1017.36 1017.25 1017.14 1016.77
1001.46 1001.30 1001.86 1002.65 1003.63 1003.18 1002.75 1002.48 1002.61 1003.33 1004.07 1005.63 1007.35 1008.12 1009.59 1011.13 1013.06 1014.56 1015.94 1016.82 1017.58 1018.45 1018.74 1018.97 1019.08 1019.14 1019.38 1019.71 1019.96 1020.32 1020.38 1020.08 1019.64 1019.31 1019.11 1018.77 1018.63 1018.48 1018.22 1017.94 1018.00 1017.82 1017.71 1017.46
1002.93 1002.70 1003.51 1004.43 1004.89 1004.69 1004.93 1004.87 1004.81 1005.38 1006.45 1007.22 1008.99 1009.65 1010.94 1012.10 1014.02 1015.25 1016.45 1017.40 1018.22 1018.68 1019.02 1019.19 1019.25 1019.58 1020.03 1020.23 1020.30 1020.51 1020.41 1020.21 1019.86 1019.73 1019.73 1019.45 1019.31 1018.97 1018.78 1018.69 1018.63 1018.51 1018.42 1018.42
1004.92 1003.92 1004.22 1005.36 1005.44 1005.91 1006.94 1007.19 1007.20 1006.98 1008.32 1009.10 1009.78 1011.81 1013.13 1013.78 1014.93 1016.22 1017.22 1018.09 1018.65 1019.01 1019.30 1019.45 1019.85 1020.08 1020.23 1020.38 1020.47 1020.66 1020.63 1020.45 1020.28 1020.07 1020.10 1020.08 1019.85 1019.74 1019.51 1019.33 1019.10 1019.13 1019.00 1018.79
Wind_Speed
17 11 25 25 24 19 15 16 19 12 8 16 22 21 19 16 10 11 13 13 12 13 14 9 10 11 12 12 13 14 15 13 11 9 8 6 6 5 3 4 6 7 7 10
13 29 21 14 20 21 18 9 11 12 18 13 14 22 20 21 17 16 16 15 14 12 12 10 11 13 14 15 14 14 14 13 11 9 7 4 5 3 4 4 4 5 7 8
21 10 27 22 19 25 23 22 9 5 12 13 6 15 12 15 16 14 14 13 15 15 15 12 13 16 16 15 16 15 13 11 11 10 8 6 4 3 3 2 3 4 6 8
21 25 13 29 29 23 27 23 16 9 9 10 10 5 11 17 14 15 16 14 15 15 15 14 15 15 16 18 14 12 11 11 10 12 8 9 6 5 4 5 5 6 8 9
17 17 28 25 26 25 22 19 21 14 9 5 10 7 7 5 14 17 15 16 17 17 17 16 17 18 17 11 11 10 9 8 10 11 10 7 5 3 3 4 7 7 6 7
23 12 23 25 21 22 10 20 20 16 11 13 19 12 6 10 14 12 10 8 13 14 14 12 12 11 11 8 9 9 10 7 10 10 10 8 8 5 4 4 3 5 5 4
16 25 18 20 20 23 20 22 11 12 11 9 13 13 9 7 2 5 5 3 2 9 11 11 12 12 12 11 11 10 10 8 7 6 7 7 5 4 3 3 3 4 4 3
12 9 27 17 24 17 28 23 12 19 17 15 6 12 4 4 3 2 4 5 9 13 13 14 14 13 13 13 14 15 14 12 11 10 10 8 8 4 2 3 2 3 3 5
10 14 20 17 20 23 28 24 12 10 10 10 9 4 5 5 5 6 8 10 13 15 15 16 16 15 15 14 17 18 19 16 15 15 14 15 13 12 10 9 7 7 6 6
3 9 7 25 23 25 28 25 13 7 12 12 12 8 6 9 8 8 10 12 13 15 16 16 15 15 14 17 18 20 20 20 17 17 15 12 14 13 11 9 10 8 7 6
6 1 4 23 11 25 19 22 18 4 3 7 9 8 2 8 9 11 12 12 13 14 14 15 15 15 17 20 19 18 18 18 16 17 15 13 9 11 10 8 7 7 7 7
9 3 6 24 11 17 16 23 20 12 8 2 2 6 3 9 10 12 14 14 15 16 16 16 15 15 19 18 17 16 13 13 14 15 16 13 12 10 7 8 7 6 6 6
3 4 5 9 1 4 16 29 16 8 2 5 4 5 4 12 14 15 16 16 16 17 18 15 15 17 17 16 15 16 13 13 13 12 19 13 8 5 6 6 7 7 8 7
8 4 4 5 11 8 9 25 21 13 7 6 3 11 11 15 15 16 16 18 17 15 16 15 17 16 15 14 14 14 14 13 14 14 16 9 5 5 5 5 5 6 6 7
3 4 6 10 17 22 15 21 23 16 12 2 13 17 18 15 17 17 18 18 19 18 16 15 16 14 14 13 12 13 13 12 12 13 12 8 6 6 7 7 7 7 7 7
9 3 5 7 18 25 16 13 24 16 7 11 16 10 13 15 16 17 19 20 18 16 16 13 14 16 13 11 10 12 12 12 12 12 10 8 7 7 8 8 8 8 8 8
4 5 2 5 19 17 10 12 19 14 8 12 13 13 18 18 15 14 15 17 17 17 14 12 13 14 11 10 8 13 13 11 12 10 9 9 8 9 9 9 8 8 8 8
9 4 5 7 18 5 10 2 11 18 8 5 18 23 21 18 16 15 15 16 18 15 14 13 11 12 10 10 12 11 12 12 9 8 9 9 9 9 9 8 8 9 8 9
8 1 2 3 5 7 6 6 10 9 8 13 25 21 24 23 23 14 13 15 17 15 12 12 11 12 11 12 10 10 10 9 10 9 8 8 8 8 8 9 9 8 9 9
7 2 2 3 4 4 10 4 2 7 6 12 23 26 29 25 12 5 13 16 17 15 13 12 11 11 11 11 10 11 11 10 9 8 8 7 7 7 8 9 9 9 8 8
2 2 2 3 4 5 3 2 4 8 8 16 18 18 19 11 10 19 17 17 15 14 14 12 11 11 10 8 7 9 9 10 8 8 8 7 8 8 8 8 7 9 9 8
2 3 2 1 4 5 7 4 10 10 19 21 19 17 22 25 25 21 19 18 15 15 13 11 11 10 9 7 8 11 12 9 8 6 6 8 7 6 7 8 7 7 8 8
3 4 4 5 4 5 5 1 11 18 28 23 24 24 25 26 23 20 18 16 15 13 12 9 9 10 10 10 11 12 9 6 5 7 9 8 8 8 7 7 8 6 8 8
4 5 5 2 9 12 15 18 19 20 24 24 22 26 24 28 23 21 17 14 13 11 10 10 11 12 11 10 10 8 7 7 7 8 9 9 9 9 9 7 7 7 8 7
6 5 5 8 11 16 16 16 22 26 25 28 23 24 26 25 22 19 17 15 12 12 10 10 11 10 9 8 9 9 9 9 8 9 9 9 8 10 9 8 7 7 8 8
8 3 1 4 8 14 10 14 19 26 23 25 27 24 19 22 21 18 15 13 12 12 11 10 10 9 9 9 10 10 10 10 10 10 8 8 8 8 7 7 7 7 11 10
Wind_Direction
190 209 213 207 214 220 220 209 224 205 204 208 231 235 233 237 223 233 234 233 227 225 238 238 221 210 199 200 198 194 190 187 173 170 163 177 175 150 172 208 222 212 204 193
175 224 217 218 217 220 224 192 217 222 220 219 233 240 229 244 235 234 227 230 227 216 214 216 209 198 203 200 201 197 199 185 183 173 161 143 145 166 180 189 189 189 200 191
210 230 201 203 203 213 223 218 204 197 191 214 235 242 224 238 220 221 218 225 228 218 217 207 206 202 203 203 200 199 191 181 175 160 133 112 113 115 158 182 198 198 193 200
233 236 220 206 209 201 215 211 208 200 211 202 206 248 215 226 213 209 206 210 223 216 221 211 206 205 200 209 196 192 180 175 163 160 153 165 180 188 182 205 211 191 208 222
215 205 207 204 209 204 221 183 199 221 230 238 195 242 240 220 229 214 210 209 214 220 207 204 195 203 207 197 188 179 166 163 158 160 171 169 170 182 194 206 197 190 207 208
248 223 196 206 207 202 193 178 189 201 218 233 227 225 212 206 228 217 208 235 236 221 205 205 199 192 183 169 168 142 126 148 165 171 173 170 189 197 228 225 213 191 184 184
219 243 227 202 194 196 204 169 159 187 196 217 215 210 219 200 248 292 300 299 158 166 165 166 167 168 154 157 144 134 127 125 132 137 141 167 174 194 243 246 232 172 155 130
201 191 213 203 198 180 193 182 176 172 186 188 155 213 201 230 357 345 61 84 111 121 131 138 141 141 143 132 119 113 101 86 87 90 75 59 36 44 69 67 97 99 113 105
205 224 177 188 200 186 189 199 187 145 176 171 170 144 152 145 122 89 85 96 92 96 103 108 106 102 106 105 108 109 102 94 86 83 79 68 58 49 57 61 74 80 79 96
285 214 209 192 205 197 184 189 194 195 168 176 182 188 128 161 141 114 101 104 89 86 86 84 85 88 93 99 103 102 102 100 99 87 76 70 72 63 42 40 42 52 53 52
182 68 205 196 182 193 183 190 213 145 250 176 153 185 56 151 139 126 111 84 79 81 85 89 91 94 99 102 101 101 100 104 100 92 84 71 58 62 59 48 38 29 40 35
187 137 182 195 153 228 177 200 190 195 156 83 208 103 339 139 130 116 95 90 93 92 93 90 89 95 101 102 96 92 94 101 102 97 93 69 47 42 46 47 31 22 31 27
167 207 135 118 66 258 200 185 193 206 134 192 142 128 141 124 114 110 108 107 107 104 99 94 95 94 95 93 94 94 92 86 79 89 80 72 63 52 42 27 10 3 5 359
173 252 345 173 161 129 179 180 194 188 190 157 96 138 150 139 123 123 120 117 109 103 102 102 96 93 92 89 91 91 84 79 77 68 85 86 61 33 20 8 355 349 347 345
43 2 358 139 150 153 174 170 181 191 171 176 154 149 156 142 136 133 124 116 113 106 99 97 96 91 86 82 80 81 74 67 67 76 65 56 33 19 2 2 358 352 351 352
358 324 312 148 156 150 172 177 182 183 100 81 134 100 132 117 126 130 128 122 108 101 95 93 93 89 82 79 81 79 71 61 57 56 53 39 16 9 3 358 355 354 350 348
328 327 65 119 151 143 151 195 167 136 168 147 159 147 128 125 127 124 116 113 108 99 104 103 87 84 77 69 66 63 60 55 53 44 35 25 11 2 360 354 352 349 341 334
311 8 344 122 142 148 138 132 143 107 90 101 110 141 134 120 99 92 100 109 102 109 111 98 93 87 79 72 64 66 61 54 48 40 28 17 4 354 354 349 350 341 331 330
222 35 38 120 89 117 172 143 141 139 59 142 132 127 115 110 91 70 98 105 108 108 99 91 87 86 78 70 63 65 63 56 41 29 21 12 1 351 349 352 344 336 334 338
136 134 316 165 112 120 166 104 353 118 106 158 141 137 137 140 122 117 117 108 109 101 94 92 86 83 75 63 59 55 49 44 35 23 21 7 0 354 354 352 345 343 340 330
110 175 159 90 97 87 25 80 128 173 158 136 135 130 138 118 97 127 122 108 102 102 96 90 81 77 76 76 72 67 61 47 29 20 17 9 12 358 359 347 355 350 346 341
204 117 43 37 103 113 16 175 197 107 118 126 121 105 104 112 120 122 118 114 111 105 99 89 87 88 85 77 64 60 50 29 22 10 21 20 9 358 3 3 2 3 358 353
70 30 111 33 31 5 5 64 115 130 130 123 116 121 118 120 121 122 119 114 105 109 102 97 105 94 76 64 52 52 34 24 26 28 32 24 16 17 13 16 16 13 9 4
75 29 71 168 30 64 76 85 98 110 114 116 118 122 124 124 123 118 112 108 110 107 112 107 101 85 73 61 62 60 44 34 41 38 30 23 25 15 20 24 20 20 16 10
10 21 83 83 101 78 61 90 107 105 107 109 108 115 121 119 117 118 115 112 111 110 103 91 85 79 76 77 70 51 49 39 46 46 30 26 22 23 20 26 25 24 38 28
328 115 63 67 75 96 84 94 108 103 107 111 109 106 100 112 113 112 108 111 108 101 98 87 81 76 67 68 62 46 40 42 39 39 30 21 22 12 18 15 19 37 30 29